Marrakech, Morocco

3:25 PM WEST on April 24, 2017 (GMT +0100)
Marrakech

Weather History for GMMX - December, 2011

Change the Weather History Date:

Wednesday, December 28, 2011

  Actual Average Record
Temperature  
Mean Temperature 52 °F -  
Max Temperature 64 °F 63 °F 72 °F (2015)
Min Temperature 39 °F 42 °F 33 °F (2000)
Degree Days  
Heating Degree Days 14    
Growing Degree Days 2 (Base 50)    
Moisture  
Dew Point 46 °F    
Average Humidity 80    
Maximum Humidity 100    
Minimum Humidity 45    
Precipitation  
Precipitation 0.00 in 0.04 in - ()
Sea Level Pressure  
Sea Level Pressure 30.37 in    
Wind  
Wind Speed 4 mph ()    
Max Wind Speed 8 mph    
Max Gust Speed -    
Visibility 2.7 miles    
Events Fog    
Averages and records for this station are not official NWS values.
T = Trace of Precipitation, MM = Missing Value Source: Averaged Metar Reports

Daily Weather History Graph

Daily Weather History Graph

Search for Another Location

Airport or City:

Trip Planner

Search our weather history database for the weather conditions in past years. The results will help you decide how hot, cold, wet, or windy it might be!

Date:

Astronomy

Dec. 28, 2011 Rise Set
Actual Time 7:30 AM WET 5:36 PM WET
Civil Twilight 7:03 AM WET 6:03 PM WET
Nautical Twilight 6:33 AM WET 6:33 PM WET
Astronomical Twilight 6:03 AM WET 7:03 PM WET
Moon 10:03 AM WET (12/28) 9:43 PM WET (12/28)
Length of Visible Light 10h 59m
Length of Day
10h 06m
Waxing Crescent, 16% of the Moon is Illuminated
Dec 28
Waxing Crescent
Jan 1
First Quarter
Jan 9
Full
Jan 16
Last Quarter
Jan 23
New

Hourly Weather History & Observations

Time (WET) Temp. Windchill Dew Point Humidity Pressure Visibility Wind Dir Wind Speed Gust Speed Precip Events Conditions
12:00 AM 49 °F - 46 °F 87% 30.40 in 3 mi SW 6.9 mph - -  
12:00 AM 50.0 °F - 48.2 °F 94% 30.36 in 3.1 mi SW 6.9 mph - N/A   Unknown
1:00 AM 46.4 °F 43.5 °F 46.4 °F 100% 30.36 in - SW 5.8 mph - N/A   Unknown
1:30 AM 46.4 °F 43.5 °F 46.4 °F 100% 30.36 in - SW 5.8 mph - N/A   Unknown
2:00 AM 44.6 °F 43.1 °F 44.6 °F 100% 30.36 in 3.1 mi SW 3.5 mph - N/A   Unknown
2:30 AM 46.4 °F - 44.6 °F 93% 30.36 in 3.1 mi Variable 1.2 mph - N/A   Unknown
3:00 AM 48 °F - 48 °F 100% 30.39 in 3 mi SW 6.9 mph - -  
3:00 AM 48.2 °F - 48.2 °F 100% 30.36 in 3.1 mi SW 5.8 mph - N/A   Unknown
3:26 AM 48.2 °F - 48.2 °F 100% 30.36 in - SW 3.5 mph - N/A   Mist
3:30 AM 48.2 °F - 48.2 °F 100% 30.36 in - SW 3.5 mph - N/A   Mist
4:00 AM 48.2 °F - 48.2 °F 100% 30.36 in 0.5 mi Variable 2.3 mph - N/A Fog Fog
4:07 AM 48.2 °F - 48.2 °F 100% 30.36 in 0.5 mi Calm Calm - N/A Fog Fog
4:30 AM 48.2 °F - 48.2 °F 100% 30.36 in 0.5 mi Calm Calm - N/A Fog Fog
5:00 AM 48.2 °F - 48.2 °F 100% 30.36 in 0.5 mi Calm Calm - N/A Fog Fog
5:12 AM 48.2 °F - 48.2 °F 100% 30.36 in 1.0 mi East 1.2 mph - N/A   Scattered Clouds
5:30 AM 48.2 °F - 48.2 °F 100% 30.36 in 1.0 mi Calm Calm - N/A   Scattered Clouds
6:00 AM 49 °F - 49 °F 98% 30.39 in 1 mi SE 3.5 mph - -   Mist
6:00 AM 48.2 °F - 48.2 °F 100% 30.36 in 1.2 mi SE 3.5 mph - N/A   Scattered Clouds
6:30 AM 48.2 °F - 48.2 °F 100% 30.36 in 1.2 mi SE 3.5 mph - N/A   Scattered Clouds
7:00 AM 48.2 °F - 48.2 °F 100% 30.36 in 2.5 mi ESE 4.6 mph - N/A   Mostly Cloudy
7:30 AM 48.2 °F - 46.4 °F 93% 30.36 in 2.5 mi East 5.8 mph - N/A   Mostly Cloudy
8:00 AM 48.2 °F - 48.2 °F 100% 30.36 in - ESE 3.5 mph - N/A   Mostly Cloudy
8:30 AM 50.0 °F - 48.2 °F 94% 30.36 in - ESE 4.6 mph - N/A   Mostly Cloudy
8:46 AM 51 °F - 48 °F 84% 30.40 in 2 mi East 3.5 mph - -   Clear
9:00 AM 50.0 °F - 48.2 °F 94% 30.39 in - East 3.5 mph - N/A   Mostly Cloudy
9:30 AM 51.8 °F - 48.2 °F 88% 30.39 in - Variable 2.3 mph - N/A   Mostly Cloudy
10:00 AM 57.2 °F - 48.2 °F 72% 30.39 in - NE 3.5 mph - N/A   Scattered Clouds
10:30 AM 57.2 °F - 48.2 °F 72% 30.39 in - ENE 5.8 mph - N/A   Scattered Clouds
11:00 AM 57.2 °F - 48.2 °F 72% 30.39 in 2.5 mi NE 6.9 mph - N/A   Scattered Clouds
11:30 AM 59.0 °F - 48.2 °F 67% 30.39 in 2.5 mi NNE 5.8 mph - N/A   Mostly Cloudy
11:47 AM 60 °F - 47 °F 52% 30.38 in 2 mi East 6.9 mph - -   Clear
12:00 PM 59.0 °F - 46.4 °F 63% 30.39 in 2.5 mi East 6.9 mph - N/A   Mostly Cloudy
12:30 PM 60.8 °F - 48.2 °F 63% 30.39 in 2.5 mi East 6.9 mph - N/A   Mostly Cloudy
1:00 PM 60.8 °F - 48.2 °F 63% 30.36 in 2.5 mi Variable 2.3 mph - N/A   Mostly Cloudy
1:30 PM 60.8 °F - 46.4 °F 59% 30.36 in 3.7 mi Variable 2.3 mph - N/A   Mostly Cloudy
2:00 PM 62.6 °F - 48.2 °F 59% 30.33 in 3.7 mi Variable 2.3 mph - N/A   Mostly Cloudy
2:30 PM 60.8 °F - 46.4 °F 59% 30.33 in 3.7 mi ENE 3.5 mph - N/A   Mostly Cloudy
3:00 PM 62 °F - 46 °F 45% 30.31 in 4 mi NE 2.3 mph - -   Mostly Cloudy
3:00 PM 62.6 °F - 46.4 °F 55% 30.33 in 3.7 mi Variable 2.3 mph - N/A   Mostly Cloudy
3:30 PM 60.8 °F - 46.4 °F 59% 30.33 in 4.3 mi NE 4.6 mph - N/A   Mostly Cloudy
4:00 PM 62.6 °F - 46.4 °F 55% 30.33 in 4.3 mi NE 6.9 mph - N/A   Mostly Cloudy
4:30 PM 60.8 °F - 44.6 °F 55% 30.33 in 4.3 mi NNE 4.6 mph - N/A   Mostly Cloudy
5:00 PM 60.8 °F - 44.6 °F 55% 30.33 in 4.3 mi NNE 5.8 mph - N/A   Mostly Cloudy
5:30 PM 59.0 °F - 42.8 °F 55% 30.33 in 3.7 mi NNE 8.1 mph - N/A   Mostly Cloudy
6:00 PM 56 °F - 44 °F 53% 30.34 in 3 mi NNE 5.8 mph - -   Partly Cloudy
6:00 PM 57.2 °F - 44.6 °F 63% 30.33 in 3.1 mi NNE 5.8 mph - N/A   Scattered Clouds
6:30 PM 55.4 °F - 44.6 °F 67% 30.33 in 3.7 mi NNE 8.1 mph - N/A   Scattered Clouds
7:00 PM 55.4 °F - 44.6 °F 67% 30.36 in 3.7 mi NE 6.9 mph - N/A   Partly Cloudy
7:30 PM 51.8 °F - 42.8 °F 71% 30.36 in 3.7 mi ENE 4.6 mph - N/A   Partly Cloudy
8:00 PM 51.8 °F - 42.8 °F 71% 30.36 in 3.1 mi ENE 3.5 mph - N/A   Partly Cloudy
8:30 PM 50.0 °F - 42.8 °F 76% 30.39 in 3.1 mi East 5.8 mph - N/A   Unknown
9:00 PM 49 °F - 43 °F 71% 30.41 in 3 mi ESE 5.8 mph - -  
9:00 PM 48.2 °F - 42.8 °F 82% 30.39 in 3.1 mi ESE 5.8 mph - N/A   Unknown
9:30 PM 50.0 °F - 42.8 °F 76% 30.39 in 3.1 mi SE 5.8 mph - N/A   Unknown
10:30 PM 46.4 °F 42.9 °F 42.8 °F 87% 30.39 in 3.1 mi ESE 6.9 mph - N/A   Unknown
11:00 PM 46.4 °F 43.5 °F 42.8 °F 87% 30.39 in 3.1 mi East 5.8 mph - N/A   Unknown
11:30 PM 46.4 °F 45.2 °F 42.8 °F 87% 30.39 in 3.1 mi NE 3.5 mph - N/A   Unknown
11:45 PM 46 °F - 42 °F 83% 30.42 in 3 mi ESE 3.5 mph - -